This demonstration page uses our WeatherBlox Daily Observations layout. Learn more.

Left ArrowRight Arrow

Hourly Observations for February 26, 2016

Temp ( °F °C ) Dew Point ( °F °C ) Humidity (%) Winds ( mph kmh ) Pressure ( in mb ) Visibility ( mi km ) Precip ( " mm )
12:53 am 00:53 Clear 50 10 42 5.6 74 74 N 3 6 30.09 1019 10 16 0.00 0.00
1:53 am 01:53 Clear 49 9.4 41 5 74 74 NW 3 6 30.09 1019 10 16 0.00 0.00
2:53 am 02:53 Clear 49 9.4 42 5.6 77 77 Calm 30.08 1019 10 16 0.00 0.00
3:53 am 03:53 Clear 49 9.4 42 5.6 77 77 Calm 30.08 1019 10 16 0.00 0.00
4:53 am 04:53 Clear 45 7.2 40 4.4 83 83 W 3 6 30.08 1019 10 16 0.00 0.00
5:53 am 05:53 Clear 46 7.8 40 4.4 79 79 Calm 30.08 1019 10 16 0.00 0.00
6:53 am 06:53 Sunny 47 8.3 41 5 80 80 Calm 30.08 1019 10 16 0.00 0.00
7:53 am 07:53 Sunny 49 9.4 42 5.6 77 77 Calm 30.09 1019 10 16 0.00 0.00
8:53 am 08:53 Sunny 52 11.1 44 6.7 75 75 Calm 30.10 1019 10 16 0.00 0.00
9:53 am 09:53 Sunny 56 13.3 47 8.3 72 72 Calm 30.11 1020 10 16 0.00 0.00
10:53 am 10:53 Cloudy 60 15.6 46 7.8 60 60 Calm 30.10 1019 10 16 0.00 0.00
11:53 am 11:53 Mostly Sunny 64 17.8 48 8.9 56 56 VRB 3 6 30.08 1019 10 16 0.00 0.00
12:53 pm 12:53 Mostly Cloudy 66 18.9 49 9.4 54 54 VRB 6 9 30.04 1017 10 16 0.00 0.00
1:53 pm 13:53 Cloudy 67 19.4 49 9.4 53 53 Calm 30.01 1016 10 16 0.00 0.00
2:53 pm 14:53 Cloudy 68 20 49 9.4 51 51 SSW 8 13 30.01 1016 10 16 0.00 0.00
3:53 pm 15:53 Cloudy 66 18.9 50 10 56 56 WSW 9 15 30.04 1017 10 16 0.00 0.00
4:53 pm 16:53 Cloudy with Light Rain 62 16.7 55 12.8 78 78 SSW 5 7 30.05 1018 7 11 0.06 1.52
5:53 pm 17:53 Cloudy 60 15.6 55 12.8 84 84 Calm 30.05 1018 7 11 0.01 0.25
6:21 pm 18:21 Cloudy 60 15.6 55 12.8 84 84 Calm 30.03 1017 8 13 0.00 0.00
6:53 pm 18:53 Cloudy with Mist and Fog 59 15 56 13.3 90 90 NW 6 9 30.06 1018 5 8 0.00 0.00
7:53 pm 19:53 Cloudy with Mist and Fog 59 15 56 13.3 90 90 Calm 30.06 1018 6 10 0.00 0.00
8:53 pm 20:53 Cloudy 58 14.4 55 12.8 90 90 Calm 30.06 1018 10 16 0.00 0.00
9:53 pm 21:53 Clear 58 14.4 54 12.2 87 87 SSW 9 15 30.08 1019 7 11 0.00 0.00
10:53 pm 22:53 Clear 55 12.8 51 10.6 87 87 SSE 9 15 30.11 1020 10 16 0.00 0.00
11:53 pm 23:53 Clear 57 13.9 44 6.7 62 62 NNW 6 9 30.14 1021 10 16 0.00 0.00

Powered by AerisWeather